This is the latest recevied weather packets stored in our database for station/object KC0CAU. If no packets are shown the sender has not sent any weather packets the latest 10 day(s).
| Time | Temp. | Humidity | Pressure | Rain* | Wind** | Luminosity | Snow |
|---|---|---|---|---|---|---|---|
| 1777817776 | 10° C | 57% | 1014 hPa | 0 mm | - | - | - |
| 1777816861 | 8.89° C | 58% | 1014.2 hPa | 0 mm | - | - | - |
| 1777815958 | 7.78° C | 60% | 1014.3 hPa | 0 mm | - | - | - |
| 1777815056 | 7.22° C | 59% | 1014.5 hPa | 0 mm | - | - | - |
| 1777814159 | 6.67° C | 61% | 1014.5 hPa | 0 mm | - | - | - |
| 1777813254 | 6.11° C | 63% | 1014.5 hPa | 0 mm | - | - | - |
| 1777812353 | 5.56° C | 65% | 1014.5 hPa | 0 mm | - | - | - |
| 1777811455 | 4.44° C | 69% | 1014.2 hPa | 0 mm | - | - | - |
| 1777810552 | 3.89° C | 70% | 1014.2 hPa | 0 mm | - | - | - |
| 1777809658 | 3.33° C | 71% | 1014.2 hPa | 0 mm | - | - | - |
| 1777808750 | 2.78° C | 71% | 1014.2 hPa | 0 mm | - | - | - |
| 1777807872 | 3.33° C | 70% | 1014.2 hPa | 0 mm | - | - | - |
| 1777806972 | 3.33° C | 70% | 1014.2 hPa | 0 mm | - | - | - |
| 1777806106 | 3.33° C | 69% | 1014.2 hPa | 0 mm | - | - | - |
| 1777805147 | 3.89° C | 69% | 1014.2 hPa | 0 mm | - | - | - |
| 1777804242 | 3.89° C | 68% | 1014.4 hPa | 0 mm | - | - | - |
| 1777803342 | 3.89° C | 68% | 1014.4 hPa | 0 mm | - | - | - |
| 1777802460 | 3.89° C | 69% | 1014.4 hPa | 0 mm | - | - | - |
| 1777801538 | 4.44° C | 68% | 1014.4 hPa | 0 mm | - | - | - |
| 1777800634 | 5° C | 66% | 1014.3 hPa | 0 mm | - | - | - |
| 1777799742 | 5.56° C | 65% | 1014.2 hPa | 0 mm | - | - | - |
| 1777798835 | 5.56° C | 64% | 1014.2 hPa | 0 mm | - | - | - |
| 1777797023 | 6.11° C | 62% | 1014 hPa | 0 mm | - | - | - |
| 1777796120 | 6.67° C | 61% | 1014 hPa | 0 mm | - | - | - |
| 1777795219 | 7.22° C | 61% | 1013.9 hPa | 0 mm | - | - | - |
* Rain latest hour (hover to see other rain measurements)
** Current wind speed in m/s (hover to see current wind gust speed)